User: anonymous   Login
Location: NJAA Observatory
(40.6819°N, 74.8979°W)
Time: 21:35:07
(UTC-05:00)
Language:

Landsat 5 - Orbit

View from above orbital plane
View from above orbital plane
View from above satellite
View from above satellite

Ground track
Ground track

The orbit data is extracted from the following two-line orbital elements,

1 14780U 84021A   16040.20268553  .00000993  00000-0  99165-4 0  9992
2 14780  98.0228 137.4614 0091800 356.3987   3.6558 14.90926384702255
Epoch (UTC): 09 February 2016 04:51:52
Eccentricity: 0.0091800
inclination: 98.0228°
perigee height: 531 km
apogee height: 659 km
right ascension of ascending node: 137.4614°
argument of perigee: 356.3987°
revolutions per day: 14.90926384
mean anomaly at epoch: 3.6558°
orbit number at epoch: 70225

The dashed part of the orbit path shows where the satellite is in the earth's shadow,  

DLR